Regional Weather Roundup
Issued by NWS

Home | Current Version | Previous Version | Text Only | Print | Product List | Glossary On
Versions: 1 2 3 4 5 6 7 8 9 10 11 12 13 14 15 16 17 18 19 20 21 22 23 24 25 26 27 28 29 30 31 32 33 34 35 36 37 38 39 40 41 42 43 44 45 46 47 48 49 50
000
ASUS45 KPSR 270510
RWRAZ

ARIZONA REGIONAL HOURLY WEATHER ROUNDUP
NATIONAL WEATHER SERVICE PHOENIX AZ
1000 PM MST THU FEB 26 2015

NOTE: FAIR INDICATES FEW OR NO CLOUDS BELOW 12,000 FEET WITH NO
SIGNIFICANT WEATHER AND/OR OBSTRUCTIONS TO VISIBILITY.

AZZ001>003-036-270600-
NORTHWEST ARIZONA

CITY           SKY/WX    TMP DP  RH WIND       PRES   REMARKS
BULLHEAD CITY  CLEAR     61  25  25 E3        29.75F
KINGMAN        CLEAR     42  27  55 S6        29.83S
$$

AZZ004>008-015-016-018-270600-
NORTH CENTRAL ARIZONA

CITY           SKY/WX    TMP DP  RH WIND       PRES   REMARKS
GRAND CANYON   PTCLDY    26  22  84 CALM      29.89S
PRESCOTT       PTCLDY    43  21  41 S3        29.87S
FLAGSTAFF      CLEAR     34  15  46 VRB3      29.89R
PAYSON         CLEAR     43  25  49 CALM      29.89S
PAGE           CLOUDY    41  29  62 CALM      29.86R
$$

AZZ009>014-017-270600-
NORTHEAST ARIZONA

CITY           SKY/WX    TMP DP  RH WIND       PRES   REMARKS
WINSLOW        CLOUDY    40  29  64 W8        29.86R WCI  34
SAINT JOHNS    CLOUDY    40  32  73 S7        29.86F
WINDOW ROCK    CLOUDY    33  28  81 E3        29.87R
SHOW LOW       MOCLDY    36  23  60 S9        29.91R WCI  29
$$

AZZ023-270600-
GREATER PHOENIX AREA

CITY           SKY/WX    TMP DP  RH WIND       PRES   REMARKS
PHOENIX        PTCLDY    65  27  23 SW3       29.75R
BUCKEYE        CLEAR     55  30  38 CALM      29.76S
LUKE AFB       CLEAR     62  29  29 SW2       29.75R
DEER VALLEY    CLEAR     59  30  33 N3        29.76S
SCOTTSDALE     CLEAR     62  26  25 CALM      29.78R
MESA-GATEWAY   PTCLDY    55  30  38 SE5       29.79S
$$

AZZ027-028-270600-
SOUTHWEST MARICOPA COUNTY AND PINAL COUNTY

CITY           SKY/WX    TMP DP  RH WIND       PRES   REMARKS
CASA GRANDE    CLEAR     57  25  28 S3        29.79R
GILA BEND      PTCLDY    59  22  24 S6        29.78R
$$

AZZ503-504-507>509-270600-
SOUTHEAST ARIZONA

CITY           SKY/WX    TMP DP  RH WIND       PRES   REMARKS
TUCSON         CLEAR     58  25  28 W8        29.85R
DAVIS-MONTHAN  CLEAR     57  25  29 SW6       29.82S
NOGALES        MOCLDY    55  19  24 S5        29.88R
SIERRA VISTA   PTCLDY    54  18  24 W7        29.89R
DOUGLAS        PTCLDY    49  18  29 S9        29.88R
SAFFORD        MOCLDY    58  24  27 NW6       29.80S
$$

AZZ020-021-025-026-031-270600-
SOUTHWEST ARIZONA

CITY           SKY/WX    TMP DP  RH WIND       PRES   REMARKS
YUMA           MOCLDY    64  34  32 S7        29.76R
$$

CAZ031-033-041-043-047-048-061-270600-
SOUTHERN CALIFORNIA

CITY           SKY/WX    TMP DP  RH WIND       PRES   REMARKS
DOWNTOWN L.A.  CLEAR     59  53  80 CALM      29.85S
L.A. AIRPORT   PTCLDY    58  53  84 CALM      29.86R
SAN DIEGO      PTCLDY    61  51  70 CALM      29.89S
BURBANK        PTCLDY    60  46  59 E6        29.84F
ONTARIO        PTCLDY    56  46  69 W5        29.85F
RIVERSIDE      CLEAR     58  47  66 CALM      29.86S
PALM SPRINGS   CLEAR     69  41  36 NW14      29.78R
EL CENTRO NAS  PTCLDY    68  41  37 SW9       29.75R
IMPERIAL       CLEAR     64  40  41 CALM      29.75R
BLYTHE         PTCLDY    66  29  24 W8        29.74S
NEEDLES        CLEAR     61  32  33 W8        29.75R
$$

NVZ020-UTZ003-270600-
SOUTHERN NEVADA-UTAH

CITY           SKY/WX    TMP DP  RH WIND       PRES   REMARKS
LAS VEGAS      PTCLDY    60  24  25 CALM      29.75R
SALT LAKE CITY MOCLDY    34  30  85 CALM      29.92R
$$

NMZ009-TXZ055-270600-
NEW MEXICO-WEST TEXAS

CITY           SKY/WX    TMP DP  RH WIND       PRES   REMARKS
ALBUQUERQUE    CLOUDY    29  17  61 E28       29.96F WCI  14
EL PASO        PTCLDY    34  24  67 E16       30.02R WCI  24
$$


........................KEY........................
SKY/WX - SKY CONDITION/WEATHER
TMP    - TEMPERATURE IN FAHRENHEIT
DP     - DEW POINT IN FAHRENHEIT
RH     - RELATIVE HUMIDITY IN PERCENT
WIND   - DIRECTION AND SPEED IN MILES PER HOUR (MPH)
VRB    - VARIABLE WIND DIRECTION
PRES   - MEAN SEA LEVEL PRESSURE IN INCHES OF MERCURY
         F - FALLING PRESSURE   R - RISING PRESSURE
         S - STEADY PRESSURE
VSB    - VISIBILITY IN MILES
HX     - HEAT INDEX IN FAHRENHEIT
WCI    - WIND CHILL INDEX IN FAHRENHEIT
TC     - TEMPERATURE IN CELSIUS WHICH IS ALSO KNOWN AS
         TEMPERATURE IN CENTIGRADE
AFB    - AIR FORCE BASE
         LUKE AFB IS LUKE AIR FORCE BASE
         DAVIS-MONTHAN IS DAVIS-MONTHAN AIR FORCE BASE
NAS    - NAVAL AIR STATION
         EL CENTRO NAS IS EL CENTRO NAVAL AIR STATION
N/A    - NOT AVAILABLE


USA.gov is the U.S. government's official web portal to all federal, state and local government web resources and services.